Year,Month,Day,Hour,Minute,Value (Times are PST for insolation in W/m^2)
2010,04,12,00,00,0.00
2010,04,12,00,01,0.00
2010,04,12,00,02,0.00
2010,04,12,00,03,0.00
2010,04,12,00,04,0.00
2010,04,12,00,05,0.00
2010,04,12,00,06,0.00
2010,04,12,00,07,0.00
2010,04,12,00,08,0.00
2010,04,12,00,09,0.00
2010,04,12,00,10,0.00
2010,04,12,00,11,0.00
2010,04,12,00,12,0.00
2010,04,12,00,13,0.00
2010,04,12,00,14,0.00
2010,04,12,00,15,0.00
2010,04,12,00,16,0.00
2010,04,12,00,17,0.00
2010,04,12,00,18,0.00
2010,04,12,00,19,0.00
2010,04,12,00,20,0.00
2010,04,12,00,21,0.00
2010,04,12,00,22,0.00
2010,04,12,00,23,0.00
2010,04,12,00,24,0.00
2010,04,12,00,25,0.00
2010,04,12,00,26,0.00
2010,04,12,00,27,0.00
2010,04,12,00,28,0.00
2010,04,12,00,29,0.00
2010,04,12,00,30,0.00
2010,04,12,00,31,0.00
2010,04,12,00,32,0.00
2010,04,12,00,33,0.00
2010,04,12,00,34,0.00
2010,04,12,00,35,0.00
2010,04,12,00,36,0.00
2010,04,12,00,37,0.00
2010,04,12,00,38,0.00
2010,04,12,00,39,0.00
2010,04,12,00,40,0.00
2010,04,12,00,41,0.00
2010,04,12,00,42,0.00
2010,04,12,00,43,0.00
2010,04,12,00,44,0.00
2010,04,12,00,45,0.00
2010,04,12,00,46,0.00
2010,04,12,00,47,0.00
2010,04,12,00,48,0.00
2010,04,12,00,49,0.00
2010,04,12,00,50,0.00
2010,04,12,00,51,0.00
2010,04,12,00,52,0.00
2010,04,12,00,53,0.00
2010,04,12,00,54,0.00
2010,04,12,00,55,0.00
2010,04,12,00,56,0.00
2010,04,12,00,57,0.00
2010,04,12,00,58,0.00
2010,04,12,00,59,0.00
2010,04,12,01,00,0.00
2010,04,12,01,01,0.00
2010,04,12,01,02,0.00
2010,04,12,01,03,0.00
2010,04,12,01,04,0.00
2010,04,12,01,05,0.00
2010,04,12,01,06,0.00
2010,04,12,01,07,0.00
2010,04,12,01,08,0.00
2010,04,12,01,09,0.00
2010,04,12,01,10,0.00
2010,04,12,01,11,0.00
2010,04,12,01,12,0.00
2010,04,12,01,13,0.00
2010,04,12,01,14,0.00
2010,04,12,01,15,0.00
2010,04,12,01,16,0.00
2010,04,12,01,17,0.00
2010,04,12,01,18,0.00
2010,04,12,01,19,0.00
2010,04,12,01,20,0.00
2010,04,12,01,21,0.00
2010,04,12,01,22,0.00
2010,04,12,01,23,0.00
2010,04,12,01,24,0.00
2010,04,12,01,25,0.00
2010,04,12,01,26,0.00
2010,04,12,01,27,0.00
2010,04,12,01,28,0.00
2010,04,12,01,29,0.00
2010,04,12,01,30,0.00
2010,04,12,01,31,0.00
2010,04,12,01,32,0.00
2010,04,12,01,33,0.00
2010,04,12,01,34,0.00
2010,04,12,01,35,0.00
2010,04,12,01,36,0.00
2010,04,12,01,37,0.00
2010,04,12,01,38,0.00
2010,04,12,01,39,0.00
2010,04,12,01,40,0.00
2010,04,12,01,41,0.00
2010,04,12,01,42,0.00
2010,04,12,01,43,0.00
2010,04,12,01,44,0.00
2010,04,12,01,45,0.00
2010,04,12,01,46,0.00
2010,04,12,01,47,0.00
2010,04,12,01,48,0.00
2010,04,12,01,49,0.00
2010,04,12,01,50,0.00
2010,04,12,01,51,0.00
2010,04,12,01,52,0.00
2010,04,12,01,53,0.00
2010,04,12,01,54,0.00
2010,04,12,01,55,0.00
2010,04,12,01,56,0.00
2010,04,12,01,57,0.00
2010,04,12,01,58,0.00
2010,04,12,01,59,0.00
2010,04,12,02,00,0.00
2010,04,12,02,01,0.00
2010,04,12,02,02,0.00
2010,04,12,02,03,0.00
2010,04,12,02,04,0.00
2010,04,12,02,05,0.00
2010,04,12,02,06,0.00
2010,04,12,02,07,0.00
2010,04,12,02,08,0.00
2010,04,12,02,09,0.00
2010,04,12,02,10,0.00
2010,04,12,02,11,0.00
2010,04,12,02,12,0.00
2010,04,12,02,13,0.00
2010,04,12,02,14,0.00
2010,04,12,02,15,0.00
2010,04,12,02,16,0.00
2010,04,12,02,17,0.00
2010,04,12,02,18,0.00
2010,04,12,02,19,0.00
2010,04,12,02,20,0.00
2010,04,12,02,21,0.00
2010,04,12,02,22,0.00
2010,04,12,02,23,0.00
2010,04,12,02,24,0.00
2010,04,12,02,25,0.00
2010,04,12,02,26,0.00
2010,04,12,02,27,0.00
2010,04,12,02,28,0.00
2010,04,12,02,29,0.00
2010,04,12,02,30,0.00
2010,04,12,02,31,0.00
2010,04,12,02,32,0.00
2010,04,12,02,33,0.00
2010,04,12,02,34,0.00
2010,04,12,02,35,0.00
2010,04,12,02,36,0.00
2010,04,12,02,37,0.00
2010,04,12,02,38,0.00
2010,04,12,02,39,0.00
2010,04,12,02,40,0.00
2010,04,12,02,41,0.00
2010,04,12,02,42,0.00
2010,04,12,02,43,0.00
2010,04,12,02,44,0.00
2010,04,12,02,45,0.00
2010,04,12,02,46,0.00
2010,04,12,02,47,0.00
2010,04,12,02,48,0.00
2010,04,12,02,49,0.00
2010,04,12,02,50,0.00
2010,04,12,02,51,0.00
2010,04,12,02,52,0.00
2010,04,12,02,53,0.00
2010,04,12,02,54,0.00
2010,04,12,02,55,0.00
2010,04,12,02,56,0.00
2010,04,12,02,57,0.00
2010,04,12,02,58,0.00
2010,04,12,02,59,0.00
2010,04,12,03,00,0.00
2010,04,12,03,01,0.00
2010,04,12,03,02,0.00
2010,04,12,03,03,0.00
2010,04,12,03,04,0.00
2010,04,12,03,05,0.00
2010,04,12,03,06,0.00
2010,04,12,03,07,0.00
2010,04,12,03,08,0.00
2010,04,12,03,09,0.00
2010,04,12,03,10,0.00
2010,04,12,03,11,0.00
2010,04,12,03,12,0.00
2010,04,12,03,13,0.00
2010,04,12,03,14,0.00
2010,04,12,03,15,0.00
2010,04,12,03,16,0.00
2010,04,12,03,17,0.00
2010,04,12,03,18,0.00
2010,04,12,03,19,0.00
2010,04,12,03,20,0.00
2010,04,12,03,21,0.00
2010,04,12,03,22,0.00
2010,04,12,03,23,0.00
2010,04,12,03,24,0.00
2010,04,12,03,25,0.00
2010,04,12,03,26,0.00
2010,04,12,03,27,0.00
2010,04,12,03,28,0.00
2010,04,12,03,29,0.00
2010,04,12,03,30,0.00
2010,04,12,03,31,0.00
2010,04,12,03,32,0.00
2010,04,12,03,33,0.00
2010,04,12,03,34,0.00
2010,04,12,03,35,0.00
2010,04,12,03,36,0.00
2010,04,12,03,37,0.00
2010,04,12,03,38,0.00
2010,04,12,03,39,0.00
2010,04,12,03,40,0.00
2010,04,12,03,41,0.00
2010,04,12,03,42,0.00
2010,04,12,03,43,0.00
2010,04,12,03,44,0.00
2010,04,12,03,45,0.00
2010,04,12,03,46,0.00
2010,04,12,03,47,0.00
2010,04,12,03,48,0.00
2010,04,12,03,49,0.00
2010,04,12,03,50,0.00
2010,04,12,03,51,0.00
2010,04,12,03,52,0.00
2010,04,12,03,53,0.00
2010,04,12,03,54,0.00
2010,04,12,03,55,0.00
2010,04,12,03,56,0.00
2010,04,12,03,57,0.00
2010,04,12,03,58,0.00
2010,04,12,03,59,0.00
2010,04,12,04,00,0.00
2010,04,12,04,01,0.00
2010,04,12,04,02,0.00
2010,04,12,04,03,0.00
2010,04,12,04,04,0.00
2010,04,12,04,05,0.00
2010,04,12,04,06,0.00
2010,04,12,04,07,0.00
2010,04,12,04,08,0.00
2010,04,12,04,09,0.00
2010,04,12,04,10,0.00
2010,04,12,04,11,0.00
2010,04,12,04,12,0.00
2010,04,12,04,13,0.00
2010,04,12,04,14,0.00
2010,04,12,04,15,0.00
2010,04,12,04,16,0.00
2010,04,12,04,17,0.00
2010,04,12,04,18,0.00
2010,04,12,04,19,0.00
2010,04,12,04,20,0.00
2010,04,12,04,21,0.00
2010,04,12,04,22,0.00
2010,04,12,04,23,0.00
2010,04,12,04,24,0.00
2010,04,12,04,25,0.00
2010,04,12,04,26,0.00
2010,04,12,04,27,0.00
2010,04,12,04,28,0.00
2010,04,12,04,29,0.00
2010,04,12,04,30,0.00
2010,04,12,04,31,0.00
2010,04,12,04,32,0.00
2010,04,12,04,33,0.00
2010,04,12,04,34,0.00
2010,04,12,04,35,0.00
2010,04,12,04,36,0.00
2010,04,12,04,37,0.00
2010,04,12,04,38,0.00
2010,04,12,04,39,0.00
2010,04,12,04,40,0.00
2010,04,12,04,41,0.00
2010,04,12,04,42,0.00
2010,04,12,04,43,0.00
2010,04,12,04,44,0.00
2010,04,12,04,45,0.00
2010,04,12,04,46,0.00
2010,04,12,04,47,0.00
2010,04,12,04,48,0.00
2010,04,12,04,49,0.00
2010,04,12,04,50,0.00
2010,04,12,04,51,0.00
2010,04,12,04,52,0.00
2010,04,12,04,53,0.00
2010,04,12,04,54,0.00
2010,04,12,04,55,0.00
2010,04,12,04,56,0.00
2010,04,12,04,57,0.00
2010,04,12,04,58,0.00
2010,04,12,04,59,0.00
2010,04,12,05,00,0.00
2010,04,12,05,01,0.00
2010,04,12,05,02,0.00
2010,04,12,05,03,0.00
2010,04,12,05,04,0.00
2010,04,12,05,05,0.00
2010,04,12,05,06,0.00
2010,04,12,05,07,0.00
2010,04,12,05,08,0.00
2010,04,12,05,09,0.00
2010,04,12,05,10,0.00
2010,04,12,05,11,0.00
2010,04,12,05,12,0.00
2010,04,12,05,13,0.00
2010,04,12,05,14,0.00
2010,04,12,05,15,0.00
2010,04,12,05,16,0.00
2010,04,12,05,17,0.00
2010,04,12,05,18,0.00
2010,04,12,05,19,0.00
2010,04,12,05,20,0.00
2010,04,12,05,21,0.00
2010,04,12,05,22,0.00
2010,04,12,05,23,0.00
2010,04,12,05,24,0.00
2010,04,12,05,25,0.00
2010,04,12,05,26,0.00
2010,04,12,05,27,0.00
2010,04,12,05,28,0.00
2010,04,12,05,29,0.00
2010,04,12,05,30,0.00
2010,04,12,05,31,0.00
2010,04,12,05,32,0.00
2010,04,12,05,33,0.00
2010,04,12,05,34,0.00
2010,04,12,05,35,0.00
2010,04,12,05,36,0.00
2010,04,12,05,37,0.00
2010,04,12,05,38,0.00
2010,04,12,05,39,0.00
2010,04,12,05,40,0.00
2010,04,12,05,41,0.00
2010,04,12,05,42,0.00
2010,04,12,05,43,0.00
2010,04,12,05,44,0.00
2010,04,12,05,45,0.00
2010,04,12,05,46,0.00
2010,04,12,05,47,0.00
2010,04,12,05,48,0.00
2010,04,12,05,49,0.00
2010,04,12,05,50,0.00
2010,04,12,05,51,0.00
2010,04,12,05,52,0.00
2010,04,12,05,53,0.00
2010,04,12,05,54,0.00
2010,04,12,05,55,0.00
2010,04,12,05,56,0.00
2010,04,12,05,57,0.00
2010,04,12,05,58,0.00
2010,04,12,05,59,0.00
2010,04,12,06,00,0.00
2010,04,12,06,01,0.00
2010,04,12,06,02,0.00
2010,04,12,06,03,0.00
2010,04,12,06,04,0.00
2010,04,12,06,05,0.00
2010,04,12,06,06,0.00
2010,04,12,06,07,0.00
2010,04,12,06,08,0.00
2010,04,12,06,09,0.00
2010,04,12,06,10,0.00
2010,04,12,06,11,0.00
2010,04,12,06,12,0.00
2010,04,12,06,13,0.00
2010,04,12,06,14,0.00
2010,04,12,06,15,0.00
2010,04,12,06,16,0.00
2010,04,12,06,17,0.00
2010,04,12,06,18,0.00
2010,04,12,06,19,0.00
2010,04,12,06,20,0.00
2010,04,12,06,21,0.00
2010,04,12,06,22,0.00
2010,04,12,06,23,0.00
2010,04,12,06,24,0.00
2010,04,12,06,25,0.00
2010,04,12,06,26,0.00
2010,04,12,06,27,0.00
2010,04,12,06,28,0.00
2010,04,12,06,29,0.00
2010,04,12,06,30,0.00
2010,04,12,06,31,0.00
2010,04,12,06,32,0.00
2010,04,12,06,33,0.00
2010,04,12,06,34,0.00
2010,04,12,06,35,0.00
2010,04,12,06,36,0.00
2010,04,12,06,37,0.00
2010,04,12,06,38,0.00
2010,04,12,06,39,0.00
2010,04,12,06,40,0.00
2010,04,12,06,41,5.00
2010,04,12,06,42,5.00
2010,04,12,06,43,5.00
2010,04,12,06,44,5.00
2010,04,12,06,45,6.40
2010,04,12,06,46,7.00
2010,04,12,06,47,7.00
2010,04,12,06,48,7.00
2010,04,12,06,49,8.10
2010,04,12,06,50,9.00
2010,04,12,06,51,9.00
2010,04,12,06,52,9.10
2010,04,12,06,53,11.00
2010,04,12,06,54,11.00
2010,04,12,06,55,11.00
2010,04,12,06,56,11.80
2010,04,12,06,57,12.00
2010,04,12,06,58,12.00
2010,04,12,06,59,12.50
2010,04,12,07,00,14.00
2010,04,12,07,01,14.00
2010,04,12,07,02,14.00
2010,04,12,07,03,14.00
2010,04,12,07,04,16.00
2010,04,12,07,05,16.00
2010,04,12,07,06,16.90
2010,04,12,07,07,18.00
2010,04,12,07,08,18.00
2010,04,12,07,09,18.90
2010,04,12,07,10,19.20
2010,04,12,07,11,21.00
2010,04,12,07,12,21.00
2010,04,12,07,13,22.30
2010,04,12,07,14,24.60
2010,04,12,07,15,25.00
2010,04,12,07,16,26.00
2010,04,12,07,17,26.70
2010,04,12,07,18,28.00
2010,04,12,07,19,29.30
2010,04,12,07,20,30.00
2010,04,12,07,21,32.00
2010,04,12,07,22,33.00
2010,04,12,07,23,33.70
2010,04,12,07,24,36.10
2010,04,12,07,25,37.00
2010,04,12,07,26,38.80
2010,04,12,07,27,40.00
2010,04,12,07,28,40.40
2010,04,12,07,29,42.00
2010,04,12,07,30,43.10
2010,04,12,07,31,44.00
2010,04,12,07,32,45.80
2010,04,12,07,33,47.00
2010,04,12,07,34,47.40
2010,04,12,07,35,49.00
2010,04,12,07,36,50.10
2010,04,12,07,37,51.00
2010,04,12,07,38,52.80
2010,04,12,07,39,53.00
2010,04,12,07,40,53.20
2010,04,12,07,41,54.00
2010,04,12,07,42,54.00
2010,04,12,07,43,54.00
2010,04,12,07,44,55.90
2010,04,12,07,45,56.00
2010,04,12,07,46,56.50
2010,04,12,07,47,58.00
2010,04,12,07,48,58.00
2010,04,12,07,49,59.50
2010,04,12,07,50,60.00
2010,04,12,07,51,60.00
2010,04,12,07,52,60.60
2010,04,12,07,53,62.00
2010,04,12,07,54,62.00
2010,04,12,07,55,62.80
2010,04,12,07,56,63.00
2010,04,12,07,57,65.40
2010,04,12,07,58,67.60
2010,04,12,07,59,69.00
2010,04,12,08,00,70.90
2010,04,12,08,01,73.60
2010,04,12,08,02,76.00
2010,04,12,08,03,79.70
2010,04,12,08,04,83.40
2010,04,12,08,05,86.10
2010,04,12,08,06,90.00
2010,04,12,08,07,94.30
2010,04,12,08,08,100.00
2010,04,12,08,09,106.40
2010,04,12,08,10,112.80
2010,04,12,08,11,118.60
2010,04,12,08,12,123.80
2010,04,12,08,13,131.20
2010,04,12,08,14,139.40
2010,04,12,08,15,148.50
2010,04,12,08,16,159.90
2010,04,12,08,17,172.80
2010,04,12,08,18,185.10
2010,04,12,08,19,197.70
2010,04,12,08,20,207.50
2010,04,12,08,21,217.60
2010,04,12,08,22,225.90
2010,04,12,08,23,233.30
2010,04,12,08,24,238.30
2010,04,12,08,25,242.80
2010,04,12,08,26,246.10
2010,04,12,08,27,250.00
2010,04,12,08,28,249.20
2010,04,12,08,29,248.00
2010,04,12,08,30,251.80
2010,04,12,08,31,259.60
2010,04,12,08,32,257.00
2010,04,12,08,33,257.30
2010,04,12,08,34,259.90
2010,04,12,08,35,254.20
2010,04,12,08,36,237.80
2010,04,12,08,37,227.40
2010,04,12,08,38,232.00
2010,04,12,08,39,232.60
2010,04,12,08,40,235.40
2010,04,12,08,41,238.30
2010,04,12,08,42,243.10
2010,04,12,08,43,246.00
2010,04,12,08,44,242.60
2010,04,12,08,45,239.60
2010,04,12,08,46,246.50
2010,04,12,08,47,259.50
2010,04,12,08,48,262.00
2010,04,12,08,49,250.20
2010,04,12,08,50,251.80
2010,04,12,08,51,246.00
2010,04,12,08,52,252.40
2010,04,12,08,53,262.90
2010,04,12,08,54,268.50
2010,04,12,08,55,269.60
2010,04,12,08,56,275.70
2010,04,12,08,57,266.40
2010,04,12,08,58,266.40
2010,04,12,08,59,278.20
2010,04,12,09,00,334.80
2010,04,12,09,01,405.20
2010,04,12,09,02,429.60
2010,04,12,09,03,453.30
2010,04,12,09,04,453.20
2010,04,12,09,05,428.00
2010,04,12,09,06,412.00
2010,04,12,09,07,406.50
2010,04,12,09,08,382.40
2010,04,12,09,09,399.90
2010,04,12,09,10,457.00
2010,04,12,09,11,470.80
2010,04,12,09,12,467.60
2010,04,12,09,13,464.10
2010,04,12,09,14,460.40
2010,04,12,09,15,449.90
2010,04,12,09,16,466.90
2010,04,12,09,17,470.10
2010,04,12,09,18,472.80
2010,04,12,09,19,462.20
2010,04,12,09,20,404.10
2010,04,12,09,21,365.20
2010,04,12,09,22,313.50
2010,04,12,09,23,287.00
2010,04,12,09,24,179.00
2010,04,12,09,25,178.00
2010,04,12,09,26,178.40
2010,04,12,09,27,205.50
2010,04,12,09,28,202.50
2010,04,12,09,29,211.10
2010,04,12,09,30,201.10
2010,04,12,09,31,189.20
2010,04,12,09,32,196.80
2010,04,12,09,33,206.90
2010,04,12,09,34,244.80
2010,04,12,09,35,258.00
2010,04,12,09,36,433.70
2010,04,12,09,37,429.00
2010,04,12,09,38,374.70
2010,04,12,09,39,246.20
2010,04,12,09,40,244.00
2010,04,12,09,41,244.00
2010,04,12,09,42,252.10
2010,04,12,09,43,297.70
2010,04,12,09,44,416.80
2010,04,12,09,45,373.00
2010,04,12,09,46,509.90
2010,04,12,09,47,584.90
2010,04,12,09,48,583.10
2010,04,12,09,49,600.80
2010,04,12,09,50,610.90
2010,04,12,09,51,616.00
2010,04,12,09,52,613.20
2010,04,12,09,53,605.00
2010,04,12,09,54,594.40
2010,04,12,09,55,577.30
2010,04,12,09,56,560.40
2010,04,12,09,57,535.90
2010,04,12,09,58,515.30
2010,04,12,09,59,473.40
2010,04,12,10,00,472.40
2010,04,12,10,01,470.30
2010,04,12,10,02,472.20
2010,04,12,10,03,468.40
2010,04,12,10,04,468.00
2010,04,12,10,05,450.00
2010,04,12,10,06,425.00
2010,04,12,10,07,438.10
2010,04,12,10,08,478.80
2010,04,12,10,09,514.40
2010,04,12,10,10,522.80
2010,04,12,10,11,524.00
2010,04,12,10,12,520.80
2010,04,12,10,13,514.10
2010,04,12,10,14,508.60
2010,04,12,10,15,504.20
2010,04,12,10,16,499.50
2010,04,12,10,17,508.00
2010,04,12,10,18,508.40
2010,04,12,10,19,512.60
2010,04,12,10,20,518.60
2010,04,12,10,21,522.40
2010,04,12,10,22,524.00
2010,04,12,10,23,524.20
2010,04,12,10,24,526.70
2010,04,12,10,25,532.70
2010,04,12,10,26,539.00
2010,04,12,10,27,535.50
2010,04,12,10,28,533.20
2010,04,12,10,29,523.70
2010,04,12,10,30,510.10
2010,04,12,10,31,503.00
2010,04,12,10,32,516.30
2010,04,12,10,33,527.00
2010,04,12,10,34,517.60
2010,04,12,10,35,538.20
2010,04,12,10,36,538.50
2010,04,12,10,37,537.30
2010,04,12,10,38,504.80
2010,04,12,10,39,449.80
2010,04,12,10,40,439.00
2010,04,12,10,41,548.80
2010,04,12,10,42,512.00
2010,04,12,10,43,512.00
2010,04,12,10,44,512.00
2010,04,12,10,45,512.00
2010,04,12,10,46,512.00
2010,04,12,10,47,518.70
2010,04,12,10,48,543.30
2010,04,12,10,49,489.60
2010,04,12,10,50,471.00
2010,04,12,10,51,508.70
2010,04,12,10,52,517.00
2010,04,12,10,53,544.30
2010,04,12,10,54,547.80
2010,04,12,10,55,534.20
2010,04,12,10,56,500.90
2010,04,12,10,57,518.20
2010,04,12,10,58,563.00
2010,04,12,10,59,553.20
2010,04,12,11,00,560.30
2010,04,12,11,01,595.90
2010,04,12,11,02,617.80
2010,04,12,11,03,621.90
2010,04,12,11,04,608.90
2010,04,12,11,05,579.20
2010,04,12,11,06,559.90
2010,04,12,11,07,589.90
2010,04,12,11,08,602.70
2010,04,12,11,09,607.90
2010,04,12,11,10,594.90
2010,04,12,11,11,561.80
2010,04,12,11,12,538.60
2010,04,12,11,13,516.70
2010,04,12,11,14,525.40
2010,04,12,11,15,517.60
2010,04,12,11,16,497.00
2010,04,12,11,17,551.70
2010,04,12,11,18,546.10
2010,04,12,11,19,549.00
2010,04,12,11,20,553.60
2010,04,12,11,21,552.00
2010,04,12,11,22,504.00
2010,04,12,11,23,495.80
2010,04,12,11,24,484.00
2010,04,12,11,25,520.00
2010,04,12,11,26,552.10
2010,04,12,11,27,550.20
2010,04,12,11,28,535.10
2010,04,12,11,29,551.30
2010,04,12,11,30,552.20
2010,04,12,11,31,493.80
2010,04,12,11,32,416.40
2010,04,12,11,33,450.00
2010,04,12,11,34,411.80
2010,04,12,11,35,373.90
2010,04,12,11,36,341.60
2010,04,12,11,37,336.00
2010,04,12,11,38,315.40
2010,04,12,11,39,301.00
2010,04,12,11,40,292.80
2010,04,12,11,41,287.60
2010,04,12,11,42,285.90
2010,04,12,11,43,285.00
2010,04,12,11,44,287.60
2010,04,12,11,45,293.50
2010,04,12,11,46,295.00
2010,04,12,11,47,295.00
2010,04,12,11,48,294.40
2010,04,12,11,49,292.50
2010,04,12,11,50,288.50
2010,04,12,11,51,284.30
2010,04,12,11,52,278.30
2010,04,12,11,54,270.10
2010,04,12,11,55,269.00
2010,04,12,11,56,267.20
2010,04,12,11,57,268.80
2010,04,12,11,58,267.60
2010,04,12,11,59,269.90
2010,04,12,12,00,271.60
2010,04,12,12,01,273.40
2010,04,12,12,02,277.60
2010,04,12,12,03,279.40
2010,04,12,12,04,283.60
2010,04,12,12,05,286.30
2010,04,12,12,06,290.40
2010,04,12,12,07,295.90
2010,04,12,12,08,303.30
2010,04,12,12,09,308.50
2010,04,12,12,10,312.40
2010,04,12,12,11,318.70
2010,04,12,12,12,322.00
2010,04,12,12,13,322.00
2010,04,12,12,14,320.10
2010,04,12,12,15,316.00
2010,04,12,12,16,316.00
2010,04,12,12,17,321.50
2010,04,12,12,18,327.00
2010,04,12,12,19,317.80
2010,04,12,12,20,315.00
2010,04,12,12,21,315.00
2010,04,12,12,22,314.20
2010,04,12,12,23,312.00
2010,04,12,12,24,311.00
2010,04,12,12,25,311.00
2010,04,12,12,26,313.20
2010,04,12,12,27,316.90
2010,04,12,12,28,320.80
2010,04,12,12,29,325.70
2010,04,12,12,30,329.00
2010,04,12,12,31,329.80
2010,04,12,12,32,330.10
2010,04,12,12,33,333.10
2010,04,12,12,34,337.20
2010,04,12,12,35,340.10
2010,04,12,12,36,343.90
2010,04,12,12,37,347.70
2010,04,12,12,38,356.80
2010,04,12,12,39,355.00
2010,04,12,12,40,357.00
2010,04,12,12,41,361.20
2010,04,12,12,42,362.00
2010,04,12,12,43,371.80
2010,04,12,12,44,386.20
2010,04,12,12,45,423.70
2010,04,12,12,46,411.90
2010,04,12,12,47,403.70
2010,04,12,12,48,397.10
2010,04,12,12,49,412.10
2010,04,12,12,50,394.30
2010,04,12,12,51,394.70
2010,04,12,12,52,401.30
2010,04,12,12,53,450.90
2010,04,12,12,54,447.70
2010,04,12,12,55,472.80
2010,04,12,12,56,551.20
2010,04,12,12,57,492.00
2010,04,12,12,58,503.20
2010,04,12,12,59,503.70
2010,04,12,13,00,492.90
2010,04,12,13,01,493.70
2010,04,12,13,02,473.00
2010,04,12,13,03,492.20
2010,04,12,13,04,513.50
2010,04,12,13,05,529.40
2010,04,12,13,06,526.80
2010,04,12,13,07,548.80
2010,04,12,13,08,575.00
2010,04,12,13,09,576.90
2010,04,12,13,10,643.80
2010,04,12,13,11,686.00
2010,04,12,13,12,576.00
2010,04,12,13,13,524.30
2010,04,12,13,14,515.50
2010,04,12,13,15,532.40
2010,04,12,13,16,509.10
2010,04,12,13,17,498.40
2010,04,12,13,18,489.60
2010,04,12,13,19,469.40
2010,04,12,13,20,454.60
2010,04,12,13,21,458.20
2010,04,12,13,22,463.70
2010,04,12,13,23,438.80
2010,04,12,13,24,431.00
2010,04,12,13,25,401.20
2010,04,12,13,26,399.20
2010,04,12,13,27,396.00
2010,04,12,13,28,380.30
2010,04,12,13,29,358.60
2010,04,12,13,30,348.50
2010,04,12,13,31,340.20
2010,04,12,13,32,334.00
2010,04,12,13,33,328.70
2010,04,12,13,34,322.70
2010,04,12,13,35,316.10
2010,04,12,13,36,309.30
2010,04,12,13,37,306.00
2010,04,12,13,38,304.30
2010,04,12,13,39,301.00
2010,04,12,13,40,301.60
2010,04,12,13,41,303.60
2010,04,12,13,42,306.10
2010,04,12,13,43,308.50
2010,04,12,13,44,311.70
2010,04,12,13,45,314.00
2010,04,12,13,46,317.00
2010,04,12,13,47,319.70
2010,04,12,13,48,322.10
2010,04,12,13,49,323.00
2010,04,12,13,50,321.80
2010,04,12,13,51,317.20
2010,04,12,13,52,310.30
2010,04,12,13,53,302.70
2010,04,12,13,54,294.20
2010,04,12,13,55,287.30
2010,04,12,13,56,283.40
2010,04,12,13,57,279.90
2010,04,12,13,58,279.00
2010,04,12,13,59,279.00
2010,04,12,14,00,279.20
2010,04,12,14,01,282.10
2010,04,12,14,02,285.90
2010,04,12,14,03,288.80
2010,04,12,14,04,291.30
2010,04,12,14,05,293.90
2010,04,12,14,06,295.10
2010,04,12,14,07,298.10
2010,04,12,14,08,301.40
2010,04,12,14,09,305.70
2010,04,12,14,10,311.90
2010,04,12,14,11,315.70
2010,04,12,14,12,316.60
2010,04,12,14,13,320.60
2010,04,12,14,14,322.40
2010,04,12,14,15,323.00
2010,04,12,14,16,323.00
2010,04,12,14,17,323.00
2010,04,12,14,18,322.80
2010,04,12,14,19,322.00
2010,04,12,14,20,321.00
2010,04,12,14,21,320.00
2010,04,12,14,22,312.50
2010,04,12,14,23,304.40
2010,04,12,14,24,294.00
2010,04,12,14,25,284.50
2010,04,12,14,26,275.50
2010,04,12,14,27,266.70
2010,04,12,14,28,264.00
2010,04,12,14,29,250.70
2010,04,12,14,30,245.30
2010,04,12,14,31,241.40
2010,04,12,14,32,237.30
2010,04,12,14,33,236.00
2010,04,12,14,34,234.50
2010,04,12,14,35,234.00
2010,04,12,14,36,234.00
2010,04,12,14,37,233.30
2010,04,12,14,38,230.90
2010,04,12,14,39,229.30
2010,04,12,14,40,229.00
2010,04,12,14,41,230.20
2010,04,12,14,42,232.90
2010,04,12,14,43,237.20
2010,04,12,14,44,241.40
2010,04,12,14,45,243.80
2010,04,12,14,46,245.80
2010,04,12,14,47,245.70
2010,04,12,14,48,244.00
2010,04,12,14,49,244.00
2010,04,12,14,50,239.70
2010,04,12,14,51,234.70
2010,04,12,14,52,230.20
2010,04,12,14,53,226.30
2010,04,12,14,54,222.30
2010,04,12,14,55,220.50
2010,04,12,14,56,218.80
2010,04,12,14,57,216.40
2010,04,12,14,58,216.00
2010,04,12,14,59,213.80
2010,04,12,15,00,213.00
2010,04,12,15,01,213.00
2010,04,12,15,02,213.00
2010,04,12,15,03,213.00
2010,04,12,15,04,213.00
2010,04,12,15,05,213.00
2010,04,12,15,06,213.40
2010,04,12,15,07,214.00
2010,04,12,15,08,215.30
2010,04,12,15,09,216.00
2010,04,12,15,10,218.10
2010,04,12,15,11,220.00
2010,04,12,15,12,221.00
2010,04,12,15,13,224.10
2010,04,12,15,14,226.30
2010,04,12,15,15,228.70
2010,04,12,15,16,232.20
2010,04,12,15,17,234.40
2010,04,12,15,18,236.40
2010,04,12,15,19,237.00
2010,04,12,15,20,237.00
2010,04,12,15,21,237.00
2010,04,12,15,22,237.20
2010,04,12,15,23,239.60
2010,04,12,15,24,241.90
2010,04,12,15,25,244.80
2010,04,12,15,26,247.40
2010,04,12,15,27,250.70
2010,04,12,15,28,255.30
2010,04,12,15,29,257.30
2010,04,12,15,30,258.90
2010,04,12,15,31,260.00
2010,04,12,15,32,260.00
2010,04,12,15,33,260.00
2010,04,12,15,34,260.00
2010,04,12,15,35,260.70
2010,04,12,15,36,262.90
2010,04,12,15,37,264.50
2010,04,12,15,38,268.10
2010,04,12,15,39,270.90
2010,04,12,15,40,274.30
2010,04,12,15,41,276.00
2010,04,12,15,42,276.00
2010,04,12,15,43,274.70
2010,04,12,15,44,274.00
2010,04,12,15,45,272.10
2010,04,12,15,46,271.00
2010,04,12,15,47,271.00
2010,04,12,15,48,271.50
2010,04,12,15,49,274.70
2010,04,12,15,50,277.70
2010,04,12,15,51,281.10
2010,04,12,15,52,283.40
2010,04,12,15,53,285.80
2010,04,12,15,54,284.80
2010,04,12,15,55,281.70
2010,04,12,15,56,282.70
2010,04,12,15,57,282.90
2010,04,12,15,58,282.60
2010,04,12,15,59,286.10
2010,04,12,16,00,285.20
2010,04,12,16,01,289.20
2010,04,12,16,02,282.00
2010,04,12,16,03,274.00
2010,04,12,16,04,273.50
2010,04,12,16,05,273.80
2010,04,12,16,06,276.00
2010,04,12,16,07,272.40
2010,04,12,16,08,269.20
2010,04,12,16,09,269.50
2010,04,12,16,10,272.00
2010,04,12,16,11,291.10
2010,04,12,16,12,298.50
2010,04,12,16,13,285.70
2010,04,12,16,14,279.60
2010,04,12,16,15,277.00
2010,04,12,16,16,271.20
2010,04,12,16,17,267.20
2010,04,12,16,18,263.20
2010,04,12,16,19,258.10
2010,04,12,16,20,253.20
2010,04,12,16,21,250.80
2010,04,12,16,22,250.00
2010,04,12,16,23,254.70
2010,04,12,16,24,258.70
2010,04,12,16,25,254.10
2010,04,12,16,26,273.10
2010,04,12,16,27,257.50
2010,04,12,16,28,275.30
2010,04,12,16,29,286.50
2010,04,12,16,30,265.00
2010,04,12,16,31,260.70
2010,04,12,16,32,260.00
2010,04,12,16,33,260.40
2010,04,12,16,34,262.00
2010,04,12,16,35,263.70
2010,04,12,16,36,257.80
2010,04,12,16,37,243.30
2010,04,12,16,38,236.80
2010,04,12,16,39,232.90
2010,04,12,16,40,229.60
2010,04,12,16,41,227.90
2010,04,12,16,42,225.60
2010,04,12,16,43,221.40
2010,04,12,16,44,217.40
2010,04,12,16,45,211.90
2010,04,12,16,46,207.80
2010,04,12,16,47,203.80
2010,04,12,16,48,199.70
2010,04,12,16,49,197.20
2010,04,12,16,50,196.80
2010,04,12,16,51,194.40
2010,04,12,16,52,193.00
2010,04,12,16,53,192.40
2010,04,12,16,54,190.60
2010,04,12,16,55,188.10
2010,04,12,16,56,188.00
2010,04,12,16,57,188.00
2010,04,12,16,58,188.90
2010,04,12,16,59,191.20
2010,04,12,17,00,192.00
2010,04,12,17,01,192.00
2010,04,12,17,02,193.00
2010,04,12,17,03,192.70
2010,04,12,17,04,192.00
2010,04,12,17,05,192.00
2010,04,12,17,06,192.00
2010,04,12,17,07,193.10
2010,04,12,17,08,195.40
2010,04,12,17,09,197.80
2010,04,12,17,10,200.50
2010,04,12,17,11,203.30
2010,04,12,17,12,205.70
2010,04,12,17,13,207.00
2010,04,12,17,14,207.00